Regional Weather Roundup
Issued by NWS

Home | Current Version | Previous Version | Text Only | Print | Product List | Glossary On
Versions: 1 2 3 4 5 6 7 8 9 10 11 12 13 14 15 16 17 18 19 20 21 22 23 24 25 26 27 28 29 30 31 32 33 34 35 36 37 38 39 40 41 42 43 44 45 46 47 48 49 50
000
ASUS45 KSLC 110710
RWRUT

UTAH REGIONAL WEATHER ROUNDUP
NATIONAL WEATHER SERVICE SALT LAKE CITY UT
100 AM MDT FRI JUL 11 2014

UTZ001>011-023>025-110800-

NORTHERN UTAH

CITY           SKY/WX    TMP DP  RH WIND       PRES   REMARKS
HILL AFB       LGT RAIN  70  59  68 E15G21    30.09F
LOGAN          LGT RAIN  68  61  78 SE16      30.04F
OGDEN          CLOUDY    70  59  68 E8        30.07F
PROVO AIRPORT  CLOUDY    64  63  94 E7        30.12S
SALT LAKE CITY MOCLDY    72  57  59 S14       30.05F
VERNAL         PTCLDY    67  60  78 MISG      30.10S
WENDOVER       PTCLDY    73  55  53 W3G17     30.03S
HEBER CITY     CLOUDY    63  55  77 CALM      30.18S
WEST JORDAN    CLOUDY    70  63  78 S8        30.09

$$

UTZ012>022-026-027-110800-

SOUTHERN UTAH

CITY           SKY/WX    TMP DP  RH WIND       PRES   REMARKS
BRYCE CANYON   PTCLDY    52  48  86 W5        30.28F
CEDAR CITY     PTCLDY    54  52  93 CALM      30.15S
MILFORD        MOCLDY    63  60  90 CALM      30.11S
MOAB/CYNLANDS  PTCLDY    70  66  87 CALM      30.03F
PRICE          CLOUDY    69  51  52 W3        30.14S
ST GEORGE      NOT AVBL

$$

REGIONAL REPORTS     COLORADO/ARIZONA

CITY           SKY/WX    TMP DP  RH WIND       PRES   REMARKS
CRAIG, CO      CLOUDY    61  56  83 S13       30.19R
GRAND JUNCTION CLOUDY    77  52  41 NW21      30.08R
RIFLE          LGT RAIN  66  59  78 NE7       30.14F
MONTROSE       MOCLDY    68  60  75 S5        30.13S
CORTEZ         MOCLDY    74  51  44 S12       30.17R
PAGE, AZ       PTCLDY    75  51  43 CALM      30.07R
GRAND CANYON   PTCLDY    56  55  97 CALM      30.25S
KINGMAN        CLEAR     67  64  90 E5        30.03S
FLAGSTAFF      PTCLDY    56  50  80 CALM      30.29S

$$

REGIONAL REPORTS    NEVADA/IDAHO/WYOMING

CITY           SKY/WX    TMP DP  RH WIND       PRES   REMARKS
LAS VEGAS, NV  MOCLDY    81  58  45 S6        29.91S
ELY            MOCLDY    58  52  80 SE3       30.19F
ELKO           MOCLDY    65  55  70 CALM      30.05S
POCATELLO, ID  CLEAR     72  39  30 S12       29.98S
BURLEY         PTCLDY    67  48  50 S10       29.95R
EVANSTON, WY   CLOUDY    56  54  93 SW12      30.27R
ROCK SPRINGS   LGT RAIN  62  54  74 W7        30.19F

$$


USA.gov is the U.S. government's official web portal to all federal, state and local government web resources and services.